Time,TemperatureF,DewpointF,PressureIn,WindDirection,WindDirectionDegrees,WindSpeedMPH,WindSpeedGustMPH,Humidity,HourlyPrecipIn,Conditions,Clouds,dailyrainin,SoftwareType,DateUTC
2017-06-25 00:03:00,75.9,58.1,29.78,East,91,0.0,0.0,54,0.00,,,0.00,meteobridge,2017-06-25 07:03:00,
2017-06-25 00:08:00,75.9,57.0,29.78,East,91,0.0,1.0,52,0.00,,,0.00,meteobridge,2017-06-25 07:08:00,
2017-06-25 00:13:00,75.9,57.6,29.78,East,91,0.0,0.0,53,0.00,,,0.00,meteobridge,2017-06-25 07:13:00,
2017-06-25 00:18:00,75.9,58.1,29.78,East,91,0.0,0.0,54,0.00,,,0.00,meteobridge,2017-06-25 07:18:00,
2017-06-25 00:23:00,75.6,58.3,29.78,East,91,0.0,1.0,55,0.00,,,0.00,meteobridge,2017-06-25 07:23:00,
2017-06-25 00:28:00,75.4,57.6,29.77,East,91,0.0,1.0,54,0.00,,,0.00,meteobridge,2017-06-25 07:28:00,
2017-06-25 00:33:00,75.4,58.1,29.77,East,91,0.0,0.0,55,0.00,,,0.00,meteobridge,2017-06-25 07:33:00,
2017-06-25 00:36:00,75.2,57.9,29.77,East,91,0.0,0.0,55,0.00,,,0.00,meteobridge,2017-06-25 07:36:00,
2017-06-25 00:41:00,75.0,57.7,29.77,East,91,0.0,0.0,55,0.00,,,0.00,meteobridge,2017-06-25 07:41:00,
2017-06-25 00:46:00,75.0,57.7,29.77,East,91,0.0,1.0,55,0.00,,,0.00,meteobridge,2017-06-25 07:46:00,
2017-06-25 00:51:00,75.0,57.7,29.77,East,91,0.0,0.0,55,0.00,,,0.00,meteobridge,2017-06-25 07:51:00,
2017-06-25 00:56:00,74.8,58.1,29.77,East,91,0.0,1.0,56,0.00,,,0.00,meteobridge,2017-06-25 07:56:00,
2017-06-25 01:01:00,74.7,57.9,29.77,East,91,0.0,1.0,56,0.00,,,0.00,meteobridge,2017-06-25 08:01:00,
2017-06-25 01:06:00,74.7,57.9,29.77,East,91,0.0,0.0,56,0.00,,,0.00,meteobridge,2017-06-25 08:06:00,
2017-06-25 01:11:00,74.3,57.6,29.77,East,91,0.0,1.0,56,0.00,,,0.00,meteobridge,2017-06-25 08:11:00,
2017-06-25 01:17:00,73.9,57.7,29.77,East,91,0.0,1.0,57,0.00,,,0.00,meteobridge,2017-06-25 08:17:00,
2017-06-25 01:22:00,73.8,58.1,29.77,East,91,0.0,1.0,58,0.00,,,0.00,meteobridge,2017-06-25 08:22:00,
2017-06-25 01:27:00,73.6,57.9,29.77,East,91,0.0,0.0,58,0.00,,,0.00,meteobridge,2017-06-25 08:27:00,
2017-06-25 01:32:00,73.2,57.0,29.77,East,91,0.0,1.0,57,0.00,,,0.00,meteobridge,2017-06-25 08:32:00,
2017-06-25 01:37:00,73.2,57.0,29.77,East,91,0.0,0.0,57,0.00,,,0.00,meteobridge,2017-06-25 08:37:00,
2017-06-25 01:42:00,73.2,58.1,29.77,East,91,0.0,0.0,59,0.00,,,0.00,meteobridge,2017-06-25 08:42:00,
2017-06-25 01:47:00,73.0,56.8,29.77,East,91,0.0,0.0,57,0.00,,,0.00,meteobridge,2017-06-25 08:47:00,
2017-06-25 01:52:00,72.7,57.0,29.77,East,91,0.0,0.0,58,0.00,,,0.00,meteobridge,2017-06-25 08:52:00,
2017-06-25 01:57:00,72.3,56.7,29.77,East,91,0.0,0.0,58,0.00,,,0.00,meteobridge,2017-06-25 08:57:00,
2017-06-25 02:02:00,72.3,56.7,29.77,East,91,0.0,0.0,58,0.00,,,0.00,meteobridge,2017-06-25 09:02:00,
2017-06-25 02:03:00,72.3,56.7,29.77,East,91,0.0,0.0,58,0.00,,,0.00,meteobridge,2017-06-25 09:03:00,
2017-06-25 02:08:00,72.3,57.7,29.77,East,91,0.0,0.0,60,0.00,,,0.00,meteobridge,2017-06-25 09:08:00,
2017-06-25 02:13:00,72.1,56.5,29.77,East,91,0.0,0.0,58,0.00,,,0.00,meteobridge,2017-06-25 09:13:00,
2017-06-25 02:18:00,72.0,56.8,29.77,East,91,0.0,0.0,59,0.00,,,0.00,meteobridge,2017-06-25 09:18:00,
2017-06-25 02:23:00,71.8,56.7,29.77,East,91,0.0,0.0,59,0.00,,,0.00,meteobridge,2017-06-25 09:23:00,
2017-06-25 02:28:00,71.8,56.7,29.77,East,91,0.0,0.0,59,0.00,,,0.00,meteobridge,2017-06-25 09:28:00,
2017-06-25 02:33:00,71.6,57.0,29.77,East,91,0.0,0.0,60,0.00,,,0.00,meteobridge,2017-06-25 09:33:00,
2017-06-25 02:39:00,71.4,56.8,29.77,East,91,0.0,0.0,60,0.00,,,0.00,meteobridge,2017-06-25 09:39:00,
2017-06-25 02:44:00,71.4,56.8,29.77,East,91,0.0,0.0,60,0.00,,,0.00,meteobridge,2017-06-25 09:44:00,
2017-06-25 02:49:00,71.4,57.2,29.77,East,91,0.0,0.0,61,0.00,,,0.00,meteobridge,2017-06-25 09:49:00,
2017-06-25 02:54:00,71.2,57.0,29.77,East,91,0.0,0.0,61,0.00,,,0.00,meteobridge,2017-06-25 09:54:00,
2017-06-25 02:59:00,71.2,57.6,29.77,East,91,0.0,0.0,62,0.00,,,0.00,meteobridge,2017-06-25 09:59:00,
2017-06-25 03:04:00,71.1,57.4,29.77,East,91,0.0,0.0,62,0.00,,,0.00,meteobridge,2017-06-25 10:04:00,
2017-06-25 03:09:00,70.9,57.7,29.77,East,91,0.0,0.0,63,0.00,,,0.00,meteobridge,2017-06-25 10:09:00,
2017-06-25 03:14:00,70.7,57.9,29.77,East,91,0.0,0.0,64,0.00,,,0.00,meteobridge,2017-06-25 10:14:00,
2017-06-25 03:19:00,70.5,57.7,29.77,East,91,0.0,0.0,64,0.00,,,0.00,meteobridge,2017-06-25 10:19:00,
2017-06-25 03:25:00,70.5,57.7,29.77,East,91,0.0,0.0,64,0.00,,,0.00,meteobridge,2017-06-25 10:25:00,
2017-06-25 03:30:00,70.3,58.1,29.77,East,91,0.0,1.0,65,0.00,,,0.00,meteobridge,2017-06-25 10:30:00,
2017-06-25 03:35:00,70.2,57.9,29.76,East,91,0.0,1.0,65,0.00,,,0.00,meteobridge,2017-06-25 10:35:00,
2017-06-25 03:40:00,70.2,57.4,29.76,East,91,0.0,1.0,64,0.00,,,0.00,meteobridge,2017-06-25 10:40:00,
2017-06-25 03:45:00,70.2,57.0,29.76,East,91,0.0,0.0,63,0.00,,,0.00,meteobridge,2017-06-25 10:45:00,
2017-06-25 03:50:00,70.2,57.9,29.76,East,91,0.0,1.0,65,0.00,,,0.00,meteobridge,2017-06-25 10:50:00,
2017-06-25 03:55:00,70.0,57.2,29.76,East,91,0.0,0.0,64,0.00,,,0.00,meteobridge,2017-06-25 10:55:00,
2017-06-25 04:00:00,69.8,56.7,29.76,East,91,0.0,1.0,63,0.00,,,0.00,meteobridge,2017-06-25 11:00:00,
2017-06-25 04:05:00,69.8,57.0,29.76,East,91,0.0,0.0,64,0.00,,,0.00,meteobridge,2017-06-25 11:05:00,
2017-06-25 04:10:00,69.6,55.9,29.77,East,91,0.0,0.0,62,0.00,,,0.00,meteobridge,2017-06-25 11:10:00,
2017-06-25 04:15:00,69.4,56.3,29.77,East,91,0.0,1.0,63,0.00,,,0.00,meteobridge,2017-06-25 11:15:00,
2017-06-25 04:20:00,69.4,55.9,29.77,East,91,0.0,1.0,62,0.00,,,0.00,meteobridge,2017-06-25 11:20:00,
2017-06-25 04:25:00,69.3,55.2,29.77,East,91,0.0,1.0,61,0.00,,,0.00,meteobridge,2017-06-25 11:25:00,
2017-06-25 04:30:00,69.3,54.9,29.77,East,91,0.0,0.0,60,0.00,,,0.00,meteobridge,2017-06-25 11:30:00,
2017-06-25 04:35:00,69.4,54.9,29.77,East,91,0.0,1.0,60,0.00,,,0.00,meteobridge,2017-06-25 11:35:00,
2017-06-25 04:40:00,69.3,55.2,29.77,East,91,0.0,0.0,61,0.00,,,0.00,meteobridge,2017-06-25 11:40:00,
2017-06-25 04:45:00,69.3,54.9,29.78,East,91,0.0,0.0,60,0.00,,,0.00,meteobridge,2017-06-25 11:45:00,
2017-06-25 04:50:00,69.3,54.9,29.78,East,91,0.0,1.0,60,0.00,,,0.00,meteobridge,2017-06-25 11:50:00,
2017-06-25 04:55:00,69.3,54.9,29.78,East,91,0.0,0.0,60,0.00,,,0.00,meteobridge,2017-06-25 11:55:00,
2017-06-25 05:00:00,69.1,54.7,29.78,East,91,0.0,1.0,60,0.00,,,0.00,meteobridge,2017-06-25 12:00:00,
2017-06-25 05:05:00,69.1,53.6,29.78,East,91,0.0,0.0,58,0.00,,,0.00,meteobridge,2017-06-25 12:05:00,
2017-06-25 05:10:00,69.3,53.8,29.78,East,91,0.0,0.0,58,0.00,,,0.00,meteobridge,2017-06-25 12:10:00,
2017-06-25 05:16:00,69.1,54.1,29.78,East,91,0.0,0.0,59,0.00,,,0.00,meteobridge,2017-06-25 12:16:00,
2017-06-25 05:21:00,69.1,53.6,29.79,East,91,0.0,1.0,58,0.00,,,0.00,meteobridge,2017-06-25 12:21:00,
2017-06-25 05:23:00,69.1,53.6,29.79,East,91,0.0,1.0,58,0.00,,,0.00,meteobridge,2017-06-25 12:23:00,
2017-06-25 05:28:00,69.1,53.6,29.79,East,91,0.0,1.0,58,0.00,,,0.00,meteobridge,2017-06-25 12:28:00,
2017-06-25 05:33:00,69.1,53.6,29.79,East,91,0.0,0.0,58,0.00,,,0.00,meteobridge,2017-06-25 12:33:00,
2017-06-25 05:38:00,69.3,53.4,29.79,East,91,0.0,0.0,57,0.00,,,0.00,meteobridge,2017-06-25 12:38:00,
2017-06-25 05:42:00,69.3,53.4,29.79,East,91,0.0,0.0,57,0.00,,,0.00,meteobridge,2017-06-25 12:42:00,
2017-06-25 05:48:00,69.3,53.8,29.80,East,91,0.0,1.0,58,0.00,,,0.00,meteobridge,2017-06-25 12:48:00,
2017-06-25 05:53:00,69.3,53.8,29.79,East,91,0.0,0.0,58,0.00,,,0.00,meteobridge,2017-06-25 12:53:00,
2017-06-25 05:58:00,69.3,53.8,29.80,East,91,0.0,0.0,58,0.00,,,0.00,meteobridge,2017-06-25 12:58:00,
2017-06-25 06:03:00,69.4,54.0,29.80,East,91,0.0,1.0,58,0.00,,,0.00,meteobridge,2017-06-25 13:03:00,
2017-06-25 06:08:00,69.4,54.0,29.80,East,91,0.0,0.0,58,0.00,,,0.00,meteobridge,2017-06-25 13:08:00,
2017-06-25 06:13:00,69.4,54.0,29.80,East,91,0.0,1.0,58,0.00,,,0.00,meteobridge,2017-06-25 13:13:00,
2017-06-25 06:18:00,69.3,54.3,29.80,East,91,0.0,1.0,59,0.00,,,0.00,meteobridge,2017-06-25 13:18:00,
2017-06-25 06:23:00,69.1,54.7,29.80,East,91,0.0,0.0,60,0.00,,,0.00,meteobridge,2017-06-25 13:23:00,
2017-06-25 06:28:00,69.1,55.0,29.80,East,91,0.0,0.0,61,0.00,,,0.00,meteobridge,2017-06-25 13:28:00,
2017-06-25 06:33:00,68.9,54.5,29.80,East,91,0.0,1.0,60,0.00,,,0.00,meteobridge,2017-06-25 13:33:00,
2017-06-25 06:38:00,68.9,54.5,29.80,East,91,0.0,1.0,60,0.00,,,0.00,meteobridge,2017-06-25 13:38:00,
2017-06-25 06:43:00,68.9,54.0,29.80,East,91,0.0,0.0,59,0.00,,,0.00,meteobridge,2017-06-25 13:43:00,
2017-06-25 06:48:00,69.1,54.1,29.80,East,91,0.0,0.0,59,0.00,,,0.00,meteobridge,2017-06-25 13:48:00,
2017-06-25 06:53:00,69.1,54.1,29.81,East,91,0.0,0.0,59,0.00,,,0.00,meteobridge,2017-06-25 13:53:00,
2017-06-25 06:58:00,69.3,54.9,29.81,East,91,0.0,0.0,60,0.00,,,0.00,meteobridge,2017-06-25 13:58:00,
2017-06-25 07:03:00,69.3,55.2,29.81,East,91,0.0,1.0,61,0.00,,,0.00,meteobridge,2017-06-25 14:03:00,
2017-06-25 07:08:00,69.3,55.8,29.81,East,91,0.0,1.0,62,0.00,,,0.00,meteobridge,2017-06-25 14:08:00,
2017-06-25 07:14:00,69.3,56.1,29.81,East,91,0.0,1.0,63,0.00,,,0.00,meteobridge,2017-06-25 14:14:00,
2017-06-25 07:19:00,69.4,56.7,29.81,East,91,0.0,1.0,64,0.00,,,0.00,meteobridge,2017-06-25 14:19:00,
2017-06-25 07:24:00,69.8,57.6,29.81,East,91,0.0,1.0,65,0.00,,,0.00,meteobridge,2017-06-25 14:24:00,
2017-06-25 07:29:00,70.2,57.4,29.81,East,91,0.0,1.0,64,0.00,,,0.00,meteobridge,2017-06-25 14:29:00,
2017-06-25 07:34:00,70.3,57.6,29.81,East,91,0.0,1.0,64,0.00,,,0.00,meteobridge,2017-06-25 14:34:00,
2017-06-25 07:39:00,70.5,57.7,29.81,East,91,0.0,0.0,64,0.00,,,0.00,meteobridge,2017-06-25 14:39:00,
2017-06-25 07:44:00,70.9,57.7,29.81,East,91,0.0,1.0,63,0.00,,,0.00,meteobridge,2017-06-25 14:44:00,
2017-06-25 07:49:00,71.1,58.3,29.81,East,91,0.0,1.0,64,0.00,,,0.00,meteobridge,2017-06-25 14:49:00,
2017-06-25 07:54:00,71.2,58.5,29.81,East,91,0.0,0.0,64,0.00,,,0.00,meteobridge,2017-06-25 14:54:00,
2017-06-25 07:59:00,71.4,58.1,29.81,East,91,0.0,0.0,63,0.00,,,0.00,meteobridge,2017-06-25 14:59:00,
2017-06-25 08:04:00,71.8,58.5,29.81,East,91,0.0,0.0,63,0.00,,,0.00,meteobridge,2017-06-25 15:04:00,
2017-06-25 08:09:00,72.0,57.7,29.82,East,91,0.0,1.0,61,0.00,,,0.00,meteobridge,2017-06-25 15:09:00,
2017-06-25 08:14:00,72.3,58.6,29.82,East,91,0.0,0.0,62,0.00,,,0.00,meteobridge,2017-06-25 15:14:00,
2017-06-25 08:19:00,72.7,58.8,29.82,East,91,0.0,1.0,62,0.00,,,0.00,meteobridge,2017-06-25 15:19:00,
2017-06-25 08:25:00,72.9,59.9,29.82,East,91,0.0,0.0,64,0.00,,,0.00,meteobridge,2017-06-25 15:25:00,
2017-06-25 08:30:00,73.2,60.3,29.82,East,91,0.0,0.0,64,0.00,,,0.00,meteobridge,2017-06-25 15:30:00,
2017-06-25 08:35:00,73.8,60.4,29.83,East,91,0.0,0.0,63,0.00,,,0.00,meteobridge,2017-06-25 15:35:00,
2017-06-25 08:40:00,74.1,60.3,29.83,East,91,0.0,0.0,62,0.00,,,0.00,meteobridge,2017-06-25 15:40:00,
2017-06-25 08:45:00,74.5,60.6,29.83,East,91,0.0,0.0,62,0.00,,,0.00,meteobridge,2017-06-25 15:45:00,
2017-06-25 08:50:00,74.8,60.4,29.83,East,91,0.0,0.0,61,0.00,,,0.00,meteobridge,2017-06-25 15:50:00,
2017-06-25 08:55:00,75.0,60.6,29.83,East,91,0.0,0.0,61,0.00,,,0.00,meteobridge,2017-06-25 15:55:00,
2017-06-25 09:00:00,75.4,61.5,29.83,East,91,0.0,0.0,62,0.00,,,0.00,meteobridge,2017-06-25 16:00:00,
2017-06-25 09:05:00,75.7,60.8,29.83,East,91,0.0,0.0,60,0.00,,,0.00,meteobridge,2017-06-25 16:05:00,
2017-06-25 09:10:00,76.3,60.4,29.83,East,91,0.0,0.0,58,0.00,,,0.00,meteobridge,2017-06-25 16:10:00,
2017-06-25 09:15:00,77.2,60.8,29.83,ENE,77,0.0,1.0,57,0.00,,,0.00,meteobridge,2017-06-25 16:15:00,
2017-06-25 09:21:00,78.4,61.9,29.83,ENE,77,0.0,0.0,57,0.00,,,0.00,meteobridge,2017-06-25 16:21:00,
2017-06-25 09:26:00,80.1,59.7,29.83,ENE,76,0.0,1.0,50,0.00,,,0.00,meteobridge,2017-06-25 16:26:00,
2017-06-25 09:31:00,81.7,61.2,29.83,ENE,76,0.0,0.0,50,0.00,,,0.00,meteobridge,2017-06-25 16:31:00,
2017-06-25 09:36:00,82.9,60.1,29.83,ENE,76,0.0,0.0,46,0.00,,,0.00,meteobridge,2017-06-25 16:36:00,
2017-06-25 09:41:00,84.2,62.4,29.83,ENE,76,0.0,0.0,48,0.00,,,0.00,meteobridge,2017-06-25 16:41:00,
2017-06-25 09:46:00,85.3,62.2,29.83,ENE,78,0.0,1.0,46,0.00,,,0.00,meteobridge,2017-06-25 16:46:00,
2017-06-25 09:51:00,86.2,61.7,29.83,ENE,78,0.0,1.0,44,0.00,,,0.00,meteobridge,2017-06-25 16:51:00,
2017-06-25 09:56:00,86.4,59.9,29.83,ENE,77,0.0,1.0,41,0.00,,,0.00,meteobridge,2017-06-25 16:56:00,
2017-06-25 10:01:00,87.1,61.2,29.82,ENE,77,0.0,0.0,42,0.00,,,0.00,meteobridge,2017-06-25 17:01:00,
2017-06-25 10:07:00,88.2,64.2,29.83,ENE,77,0.0,0.0,45,0.00,,,0.00,meteobridge,2017-06-25 17:07:00,
2017-06-25 10:12:00,88.7,64.6,29.82,ENE,77,0.0,0.0,45,0.00,,,0.00,meteobridge,2017-06-25 17:12:00,
2017-06-25 10:17:00,88.7,63.3,29.82,East,89,0.0,0.0,43,0.00,,,0.00,meteobridge,2017-06-25 17:17:00,
2017-06-25 10:22:00,88.9,62.8,29.82,East,79,0.0,1.0,42,0.00,,,0.00,meteobridge,2017-06-25 17:22:00,
2017-06-25 10:27:00,89.1,60.8,29.82,East,79,0.0,1.0,39,0.00,,,0.00,meteobridge,2017-06-25 17:27:00,
2017-06-25 10:32:00,89.1,60.8,29.83,SE,140,0.0,1.0,39,0.00,,,0.00,meteobridge,2017-06-25 17:32:00,
2017-06-25 10:37:00,89.2,63.1,29.83,ESE,105,0.9,1.0,42,0.00,,,0.00,meteobridge,2017-06-25 17:37:00,
2017-06-25 10:42:00,89.2,60.3,29.83,SSE,160,0.9,1.0,38,0.00,,,0.00,meteobridge,2017-06-25 17:42:00,
2017-06-25 10:47:00,89.2,61.0,29.83,SE,138,0.0,1.0,39,0.00,,,0.00,meteobridge,2017-06-25 17:47:00,
2017-06-25 10:52:00,89.4,61.2,29.83,SE,138,0.0,0.0,39,0.00,,,0.00,meteobridge,2017-06-25 17:52:00,
2017-06-25 10:57:00,90.1,61.9,29.83,North,2,0.0,1.0,39,0.00,,,0.00,meteobridge,2017-06-25 17:57:00,